KBFIKPWT

Guest
Details From KBFI - Boeing Field King Co Intl
To KPWT - Bremerton National
Flight Number -
Tags Routegen
Created
Modified
Stats Distance 19 nm / 35 km
Max Altitude 0 ft / 0 m
Waypoints 2
Social Downloads 2
Likes 0
Share VATSIM

Download

Looking for another format? Having issues loading an existing format? Contact us
Advertisement - Login to hide

Notes

None

Route

KBFI KPWT

ID Type Via Altitude (ft/m) Position (lat/lon) Dist (leg/tot) Name
O KBFI APT - 0 / 0 47.53802 / -122.30746 - / 0 nm
O KPWT APT - 0 / 0 47.48333 / -122.77138 19 / 19 nm

Altitude Profile

Advertisement - Login to hide

KBFI

Details ICAO KBFI (BFI)
Name Boeing Field King Co Intl
Region United States
Timezone America/Los_Angeles (UTC-7.0)
Stats Elevation 20 ft / 6 m (AMSL)
Location 47.531100° -122.303000°
Runways 2
Magnetic Variation 15.452° E

METAR

KBFI 190853Z 00000KT 10SM FEW040 12/10 A3003 RMK AO2 SLP167 T01220100 53012

Decode

TAF

KBFI 190523Z 1906/2006 00000KT P6SM FEW060 FM191500 00000KT P6SM FEW010 SCT250 FM191800 21005KT P6SM SCT050 BKN250 FM200300 VRB03KT P6SM BKN100

Decode

Departure Runways

ID Width Length Bearing (true/mag) Surface Threshold Overrun Markings Lighting
14L 100 ft / 30 m 3,708 ft / 1,130 m 150.28° / 134.83° ASPHALT 239 ft / 73 m 0 ft / 0 m APP EDGE THRESHOLD REIL-OMNI
14R 200 ft / 61 m 9,997 ft / 3,047 m 150.27° / 134.82° ASPHALT 0 ft / 0 m 896 ft / 273 m PREC-APP EDGE THRESHOLD MALS
32L 200 ft / 61 m 9,997 ft / 3,047 m 330.29° / 314.84° ASPHALT 879 ft / 268 m 151 ft / 46 m PREC-APP EDGE THRESHOLD REIL-OMNI
32R 100 ft / 30 m 3,708 ft / 1,130 m 330.29° / 314.83° ASPHALT 364 ft / 111 m 0 ft / 0 m APP EDGE THRESHOLD REIL-OMNI

KPWT

Details ICAO KPWT (PWT)
Name Bremerton National
Region United States
Timezone America/Los_Angeles (UTC-7.0)
Stats Elevation 444 ft / 135 m (AMSL)
Location 47.490200° -122.765000°
Runways 1
Magnetic Variation 15.525° E

METAR

KPWT 190856Z AUTO 00000KT 10SM CLR 08/08 A3003 RMK AO2 SLP188 6//// T00830078 53010

Decode

TAF

TAF AMD KPWT 190727Z 1907/2006 00000KT P6SM FEW060 TEMPO 1907/1911 2SM BR FM191100 00000KT 4SM BR BKN007 FM191400 00000KT 3SM BR OVC004 FM191800 18003KT P6SM BKN007 FM192000 21005KT P6SM SCT040 BKN250 FM200300 19004KT P6SM BKN080

Decode

Destination Runways

ID Width Length Bearing (true/mag) Surface Threshold Overrun Markings Lighting
01 151 ft / 46 m 5,997 ft / 1,828 m 32.69° / 17.16° ASPHALT 0 ft / 0 m 0 ft / 0 m APP EDGE THRESHOLD
19 151 ft / 46 m 5,997 ft / 1,828 m 212.70° / 197.17° ASPHALT 0 ft / 0 m 1,243 ft / 379 m PREC-APP EDGE THRESHOLD MALSR

Approach Navaids

Runway Type Ident Frequency Range Bearing (true/mag) Slope Elevation
19 GS IPWT 111.10 MHz 10 nm / 19 km 213.38° / 197.86 ° 3.00° 436 ft / 133 m (AMSL)
19 OM OM - - 212.69° / 197.17 ° - 444 ft / 135 m (AMSL)
19 LOC-ILS IPWT 111.10 MHz 18 nm / 33 km 212.69° / 197.17 ° - 444 ft / 135 m (AMSL)

Popular Alternatives